STARLINK-36855, 68121

Orbit data source: Space-Track

STARLINK-36855, 68121 is a payload satellite owned by SpaceX/Seattle (US) in SSO that was launched on Sun, 08 Mar 2026 UTC via an FALCON 9 launch vehicle from the Air Force Western Test Range (AFWTR). Payload-class satellites include a variety of spacecraft equipped with specific instruments for various scientific and technological missions. These include communications satellites like Starlink; space stations such as the ISS; scientific satellites like the Hubble; Earth observation satellites from companies like Planet Labs, Umbra, and HawkEye 360; GPS; miniature CubeSats for education and research; and military/defense satellites.

Not visible in the next 10 days
Identifier
68121, 2026-044W
Orbit
SSO
Country
Flag of USUS
Related business
Manufacturer
SpaceX/Seattle
Mission
Operational spacecraft
Bus & Motor
STARLINK V2MO, Unknown motor
Mass
575 kg wet, ~530 kg dry
Launch date (UTC)
2026-03-08 (1 week ago)
Launch vehicle
FALCON 9
Launch site
Air Force Western Test Range (AFWTR)
Object type
Payload
Rocket body
Debris
Shape & HBR
Unknown
Radar Cross Section
RCS unknown

Expand to show TLE details & history
Last TLE update: 9 hours ago

TLE from 9 hours ago
0 STARLINK-36855
1 68121U 26044W   26073.50002315 -.01882036  11158-2 -29543-2 0  9991
2 68121  97.2808  33.7450 0001557  99.9372  80.8896 16.04114442  2124
Epoch: 2026-03-14T12:00Z
TLE epoch observation values (Epoch: 2026-03-14T12:00:02.000Z)
Latitude
-0.97108°
Longitude
-138.50702°
Altitude
266.213 km
Speed
7.747 km/s
True Right ascension
14h 14m 29s
True Declination
0° 57' 53"
Sunlit
Object was in full shadow at epoch
Visualization orbit readout
Latitude
Unknown
Longitude
Unknown
Altitude
Unknown
Speed
Unknown
Apparent Right ascension
Unknown
Apparent Declination
Unknown
Sunlit
N/A
Visualization observer readout
Local Sidereal Time
01:30:09
Azimuth
Unknown
Elevation
Unknown
Doppler factor
Unknown
Orbital elements
Apogee altitude
260.921 km
Perigee altitude
258.854 km
Semi-major axis
6,638.024 km
Eccentricity
0.00016
Inclination
97.2808°
RAAN
33.745°
Arg. of periapsis
99.9372°
True anomaly
80.90722°
Mean anomaly
80.8896°
Eccentric anomaly
80.89841°
Mean motion
4.01315 °/min
Orbital period
89.71 mins
BSTAR
-0.0029543
Loading maneuver chart data...
Computing Atmospheric mass density...
Loading historical data...
Loading historical data...
Loading historical data...
Loading historical data...
Loading historical data...
Loading historical data...
Loading historical data...

Documentation

Showing up to 5 results
|